Location: Staunton
(38.1490°N, 79.0720°W)
Time: 01:35:58
(UTC-04:00)

ISS - Pass Details

Date: 22 May 2019
Orbit: 408 x 418 km, 51.6° (Epoch: 27 May)

Event Time Altitude Azimuth Distance (km) Brightness Sun altitude
Rises 21:13:22 0° 261° (W) 2,336 0.8 -8.8°
Reaches altitude 10° 21:15:43 10° 276° (W) 1,479 0.1 -9.2°
Maximum altitude 21:18:28 24° 332° (NNW) 915 -1.2 -9.6°
Drops below altitude 10° 21:21:14 10° 28° (NNE) 1,489 -0.9 -10.1°
Sets 21:23:37 0° 43° (NE) 2,356 0.0 -10.4°
